Flag for U.S.A. Weather past 2 weeks in Bridgeport, Connecticut, U.S.A.

Now
64 °F

Light rain. Overcast.


Feels Like: 64 °F
Forecast: 63 / 71 °F
Wind: 7 mph from Northeast

Location: Sikorsky Memorial Airport

Current Time: Sep 30, 2014 at 1:20:37 PM

Latest Report: Sep 30, 2014 at 12:52 PM


Visibility: 10 mi

Pressure: 29.98 "Hg

Humidity: 84%

Dew point: 59 °F

Location of BridgeportLocation

Historic Weather in Bridgeport — Graph

°F

Bridgeport temperature yesterday

Maximum temperature yesterday: 75 °F (at 2:52 PM)
Minimum temperature yesterday: 64 °F (at 3:52 AM)
Average temperature yesterday: 69 °F

Past Weeks' High & Low Weather Summary

 TemperatureHumidityPressure
High79 °F (Sep 27, 11:52 AM)100% (Sep 21, 4:52 AM)30.58 "Hg (Sep 21, 4:52 AM)
Low48 °F (Sep 23, 3:52 AM)32% (Sep 18, 4:52 PM)29.60 "Hg (Sep 21, 11:52 PM)
Average65 °F70%30.12 "Hg
* Reported Sep 15 11:52 AM — Sep 30 11:52 AM, Bridgeport, Weather by CustomWeather, © 2014

Note: Actual official high and low records may vary slightly from our data, if they occured in-between our weather recording intervals... More about our weather records

Advertising

Bridgeport weather history for previous 24 hours

 ConditionsComfort  
Time TempWeatherWind HumidityBarometerVisibility
11:52 AM
Sep 30
63 °FOvercast.9 mph84%29.98 "Hg10 mi
10:52 AM63 °FOvercast.8 mph87%29.98 "Hg10 mi
9:52 AM62 °FLow clouds.9 mph90%29.99 "Hg10 mi
8:52 AM62 °FLow clouds.9 mph90%30.00 "Hg9 mi
7:52 AM62 °FLow clouds.9 mph93%29.99 "Hg7 mi
6:52 AM64 °FLow clouds.9 mph90%29.97 "Hg8 mi
5:52 AM65 °FLow clouds.9 mph91%29.95 "Hg7 mi
4:52 AM66 °FLow clouds.12 mph90%29.94 "Hg8 mi
3:52 AM67 °FLow clouds.10 mph90%29.94 "Hg8 mi
2:52 AM68 °FMostly cloudy.13 mph90%29.93 "Hg8 mi
1:52 AM68 °FFog.13 mph93%29.93 "Hg6 mi
12:55 AM68 °FFog.12 mph93%29.93 "Hg5 mi
11:52 PM
Sep 29
68 °FLight rain. Fog.5 mph93%29.94 "Hg6 mi
10:52 PM69 °FClear.5 mph87%29.93 "Hg8 mi
9:52 PM69 °FClear.3 mph87%29.94 "Hg10 mi
8:52 PM70 °FClear.No wind87%29.93 "Hg10 mi
7:52 PM70 °FPassing clouds.3 mph87%29.93 "Hg9 mi
6:52 PM70 °FBroken clouds.8 mph84%29.92 "Hg10 mi
5:52 PM71 °FSunny.6 mph73%29.92 "Hg10 mi
4:52 PM73 °FSunny.No wind59%29.91 "Hg10 mi
3:52 PM75 °FSunny.3 mph42%29.92 "Hg10 mi
2:52 PM75 °FSunny.No wind55%29.93 "Hg10 mi
1:52 PM73 °FSunny.6 mph59%29.94 "Hg10 mi
Weather by CustomWeather, © 2014

See weather overviewHow to use our weather pages